Time,TemperatureF,DewpointF,PressureIn,WindDirection,WindDirectionDegrees,WindSpeedMPH,WindSpeedGustMPH,Humidity,HourlyPrecipIn,Conditions,Clouds,dailyrainin,SoftwareType,DateUTC
2013-05-19 00:02:00,68.0,63.0,29.98,SSE,166,0.0,0.0,84,0.00,,,0.00,,2013-05-19 04:02:00,
2013-05-19 00:12:00,68.0,63.0,29.98,SSE,166,0.0,0.0,84,0.00,,,0.00,,2013-05-19 04:12:00,
2013-05-19 00:23:00,68.0,64.0,29.98,SSE,166,0.0,0.0,86,0.00,,,0.00,,2013-05-19 04:23:00,
2013-05-19 00:33:00,67.0,63.0,29.98,ENE,77,0.0,1.0,86,0.00,,,0.00,,2013-05-19 04:33:00,
2013-05-19 00:42:00,67.0,63.0,29.98,ENE,77,0.0,1.0,86,0.00,,,0.00,,2013-05-19 04:42:00,
2013-05-19 00:53:00,67.0,63.0,29.97,East,84,0.0,0.0,86,0.00,,,0.00,,2013-05-19 04:53:00,
2013-05-19 01:02:00,67.0,63.0,29.97,East,83,0.0,0.0,86,0.00,,,0.00,,2013-05-19 05:02:00,
2013-05-19 01:12:00,67.0,63.0,29.97,East,83,0.0,0.0,86,0.00,,,0.00,,2013-05-19 05:12:00,
2013-05-19 01:22:00,67.0,63.0,29.96,East,83,0.0,1.0,87,0.00,,,0.00,,2013-05-19 05:22:00,
2013-05-19 01:32:00,67.0,63.0,29.96,SE,137,0.0,1.0,88,0.00,,,0.00,,2013-05-19 05:32:00,
2013-05-19 01:42:00,67.0,63.0,29.96,ESE,107,0.0,1.0,88,0.00,,,0.00,,2013-05-19 05:42:00,
2013-05-19 01:52:00,67.0,63.0,29.96,ESE,107,0.0,1.0,88,0.00,,,0.00,,2013-05-19 05:52:00,
2013-05-19 02:02:00,67.0,63.0,29.96,ESE,107,0.0,0.0,88,0.00,,,0.00,,2013-05-19 06:02:00,
2013-05-19 02:12:00,67.0,63.0,29.96,ESE,107,0.0,0.0,88,0.00,,,0.00,,2013-05-19 06:12:00,
2013-05-19 02:21:00,66.0,63.0,29.95,ESE,107,0.0,1.0,90,0.00,,,0.00,,2013-05-19 06:21:00,
2013-05-19 02:32:00,65.0,62.0,29.94,East,95,0.0,1.0,91,0.00,,,0.00,,2013-05-19 06:32:00,
2013-05-19 02:42:00,65.0,62.0,29.94,SE,144,0.0,2.0,91,0.00,,,0.00,,2013-05-19 06:42:00,
2013-05-19 02:52:00,65.0,62.0,29.94,SE,144,0.0,2.0,91,0.00,,,0.00,,2013-05-19 06:52:00,
2013-05-19 03:01:00,66.0,63.0,29.95,SSE,158,0.0,3.0,91,0.00,,,0.00,,2013-05-19 07:01:00,
2013-05-19 03:11:00,66.0,63.0,29.95,SSE,158,0.0,3.0,91,0.00,,,0.00,,2013-05-19 07:11:00,
2013-05-19 03:21:00,65.0,62.0,29.95,SSE,158,0.0,0.0,91,0.00,,,0.00,,2013-05-19 07:21:00,
2013-05-19 03:32:00,65.0,63.0,29.94,SSE,160,1.0,1.0,92,0.00,,,0.00,,2013-05-19 07:32:00,
2013-05-19 03:42:00,65.0,63.0,29.94,SSE,160,1.0,1.0,92,0.00,,,0.00,,2013-05-19 07:42:00,
2013-05-19 03:52:00,64.0,62.0,29.94,SE,129,0.0,1.0,92,0.00,,,0.00,,2013-05-19 07:52:00,
2013-05-19 04:01:00,64.0,62.0,29.95,SSE,148,0.0,1.0,93,0.00,,,0.00,,2013-05-19 08:01:00,
2013-05-19 04:12:00,64.0,62.0,29.95,SSE,148,0.0,1.0,93,0.00,,,0.00,,2013-05-19 08:12:00,
2013-05-19 04:22:00,64.0,62.0,29.96,SW,221,0.0,1.0,93,0.00,,,0.00,,2013-05-19 08:22:00,
2013-05-19 04:32:00,64.0,62.0,29.96,SW,221,0.0,0.0,93,0.00,,,0.00,,2013-05-19 08:32:00,
2013-05-19 04:42:00,64.0,62.0,29.96,SW,221,0.0,0.0,93,0.00,,,0.00,,2013-05-19 08:42:00,
2013-05-19 04:52:00,63.0,61.0,29.96,SE,142,0.0,0.0,94,0.00,,,0.00,,2013-05-19 08:52:00,
2013-05-19 05:02:00,63.0,62.0,29.96,SE,142,0.0,0.0,95,0.00,,,0.00,,2013-05-19 09:02:00,
2013-05-19 05:11:00,63.0,62.0,29.96,SE,142,0.0,0.0,95,0.00,,,0.00,,2013-05-19 09:11:00,
2013-05-19 05:21:00,62.0,61.0,29.97,South,189,0.0,0.0,95,0.00,,,0.00,,2013-05-19 09:21:00,
2013-05-19 05:32:00,62.0,61.0,29.97,South,188,0.0,0.0,95,0.00,,,0.00,,2013-05-19 09:32:00,
2013-05-19 05:42:00,62.0,61.0,29.97,South,188,0.0,0.0,95,0.00,,,0.00,,2013-05-19 09:42:00,
2013-05-19 05:53:00,62.0,61.0,29.97,South,187,0.0,1.0,96,0.00,,,0.00,,2013-05-19 09:53:00,
2013-05-19 06:02:00,62.0,61.0,29.97,South,187,0.0,1.0,96,0.00,,,0.00,,2013-05-19 10:02:00,
2013-05-19 07:32:00,63.0,62.0,29.96,SE,137,1.0,2.0,97,0.00,,,0.00,,2013-05-19 11:32:00,
2013-05-19 07:42:00,63.0,62.0,29.96,SE,137,1.0,2.0,97,0.00,,,0.00,,2013-05-19 11:42:00,
2013-05-19 07:52:00,64.0,63.0,29.96,ESE,103,1.0,3.0,97,0.00,,,0.00,,2013-05-19 11:52:00,
2013-05-19 08:01:00,65.0,64.0,29.96,SSE,148,1.0,2.0,96,0.00,,,0.00,,2013-05-19 12:01:00,
2013-05-19 08:11:00,65.0,64.0,29.96,SSE,148,1.0,2.0,96,0.00,,,0.00,,2013-05-19 12:11:00,
2013-05-19 08:21:00,67.0,65.0,29.98,SSW,205,1.0,4.0,92,0.00,,,0.00,,2013-05-19 12:21:00,
2013-05-19 08:31:00,67.0,64.0,29.98,WSW,245,2.0,4.0,91,0.00,,,0.00,,2013-05-19 12:31:00,
2013-05-19 08:41:00,67.0,64.0,29.98,WSW,245,2.0,4.0,91,0.00,,,0.00,,2013-05-19 12:41:00,
2013-05-19 08:52:00,69.0,66.0,29.98,South,177,2.0,4.0,89,0.00,,,0.00,,2013-05-19 12:52:00,
2013-05-19 09:01:00,69.0,65.0,29.99,SW,217,3.0,5.0,88,0.00,,,0.00,,2013-05-19 13:01:00,
2013-05-19 09:11:00,69.0,65.0,29.99,SW,217,3.0,5.0,88,0.00,,,0.00,,2013-05-19 13:11:00,
2013-05-19 09:21:00,70.0,66.0,29.98,SSW,205,1.0,4.0,88,0.00,,,0.00,,2013-05-19 13:21:00,
2013-05-19 09:32:00,72.0,67.0,29.98,SW,225,2.0,4.0,84,0.00,,,0.00,,2013-05-19 13:32:00,
2013-05-19 09:42:00,72.0,67.0,29.98,SW,225,2.0,4.0,84,0.00,,,0.00,,2013-05-19 13:42:00,
2013-05-19 09:52:00,74.0,68.0,29.98,South,191,1.0,4.0,82,0.00,,,0.00,,2013-05-19 13:52:00,
2013-05-19 10:02:00,75.0,68.0,29.98,WNW,288,3.0,4.0,78,0.00,,,0.00,,2013-05-19 14:02:00,
2013-05-19 10:11:00,75.0,68.0,29.98,WNW,288,3.0,4.0,78,0.00,,,0.00,,2013-05-19 14:11:00,
2013-05-19 10:21:00,75.0,67.0,29.98,SSE,158,3.0,4.0,77,0.00,,,0.00,,2013-05-19 14:21:00,
2013-05-19 10:32:00,75.0,67.0,29.98,SW,236,1.0,4.0,77,0.00,,,0.00,,2013-05-19 14:32:00,
2013-05-19 10:41:00,75.0,67.0,29.98,SW,236,1.0,4.0,77,0.00,,,0.00,,2013-05-19 14:41:00,
2013-05-19 10:52:00,77.0,67.0,29.98,WNW,302,3.0,4.0,72,0.00,,,0.00,,2013-05-19 14:52:00,
2013-05-19 11:01:00,77.0,67.0,29.97,SW,218,4.0,7.0,71,0.00,,,0.00,,2013-05-19 15:01:00,
2013-05-19 11:11:00,77.0,67.0,29.97,SW,218,4.0,7.0,71,0.00,,,0.00,,2013-05-19 15:11:00,
2013-05-19 11:21:00,77.0,67.0,29.98,WSW,242,5.0,8.0,71,0.00,,,0.00,,2013-05-19 15:21:00,
2013-05-19 11:33:00,77.0,66.0,29.98,SSW,200,3.0,4.0,70,0.00,,,0.00,,2013-05-19 15:33:00,
2013-05-19 11:43:00,77.0,66.0,29.98,SSW,200,3.0,4.0,70,0.00,,,0.00,,2013-05-19 15:43:00,
2013-05-19 11:53:00,78.0,67.0,29.98,South,179,2.0,7.0,69,0.00,,,0.00,,2013-05-19 15:53:00,
2013-05-19 12:03:00,79.0,67.0,29.97,WSW,253,3.0,5.0,66,0.00,,,0.00,,2013-05-19 16:03:00,
2013-05-19 12:12:00,79.0,67.0,29.97,WSW,253,3.0,5.0,66,0.00,,,0.00,,2013-05-19 16:12:00,
2013-05-19 12:23:00,81.0,67.0,29.97,SW,215,2.0,6.0,63,0.00,,,0.00,,2013-05-19 16:23:00,
2013-05-19 12:32:00,81.0,67.0,29.96,SE,138,2.0,7.0,62,0.00,,,0.00,,2013-05-19 16:32:00,
2013-05-19 12:42:00,81.0,67.0,29.96,SE,138,2.0,7.0,62,0.00,,,0.00,,2013-05-19 16:42:00,
2013-05-19 12:52:00,82.0,68.0,29.94,ESE,110,2.0,9.0,62,0.00,,,0.00,,2013-05-19 16:52:00,
2013-05-19 13:02:00,82.0,66.0,29.94,SE,131,4.0,7.0,58,0.00,,,0.00,,2013-05-19 17:02:00,
2013-05-19 13:12:00,82.0,66.0,29.94,SE,131,4.0,7.0,58,0.00,,,0.00,,2013-05-19 17:12:00,
2013-05-19 13:22:00,83.0,67.0,29.93,SW,217,3.0,13.0,59,0.00,,,0.00,,2013-05-19 17:22:00,
2013-05-19 13:32:00,84.0,66.0,29.93,SE,134,3.0,7.0,55,0.00,,,0.00,,2013-05-19 17:32:00,
2013-05-19 13:42:00,84.0,66.0,29.93,SE,134,3.0,7.0,55,0.00,,,0.00,,2013-05-19 17:42:00,
2013-05-19 13:52:00,85.0,66.0,29.92,SSE,158,3.0,9.0,54,0.00,,,0.00,,2013-05-19 17:52:00,
2013-05-19 14:02:00,85.0,66.0,29.91,SSE,153,4.0,8.0,54,0.00,,,0.00,,2013-05-19 18:02:00,
2013-05-19 14:12:00,85.0,66.0,29.91,SSE,153,4.0,8.0,54,0.00,,,0.00,,2013-05-19 18:12:00,
2013-05-19 14:22:00,84.0,66.0,29.90,SE,132,5.0,12.0,54,0.00,,,0.00,,2013-05-19 18:22:00,
2013-05-19 14:32:00,85.0,66.0,29.90,East,88,4.0,10.0,53,0.00,,,0.00,,2013-05-19 18:32:00,
2013-05-19 14:42:00,85.0,66.0,29.90,East,88,4.0,10.0,53,0.00,,,0.00,,2013-05-19 18:42:00,
2013-05-19 14:53:00,86.0,65.0,29.89,SSE,156,6.0,14.0,50,0.00,,,0.00,,2013-05-19 18:53:00,
2013-05-19 15:01:00,86.0,65.0,29.90,ESE,120,5.0,11.0,50,0.00,,,0.00,,2013-05-19 19:01:00,
2013-05-19 15:11:00,86.0,65.0,29.90,ESE,120,5.0,11.0,50,0.00,,,0.00,,2013-05-19 19:11:00,
2013-05-19 15:22:00,85.0,64.0,29.91,SSE,168,3.0,9.0,49,0.00,,,0.00,,2013-05-19 19:22:00,
2013-05-19 15:32:00,87.0,67.0,29.90,SSW,208,4.0,6.0,51,0.00,,,0.00,,2013-05-19 19:32:00,
2013-05-19 15:42:00,87.0,67.0,29.90,SSW,208,4.0,6.0,51,0.00,,,0.00,,2013-05-19 19:42:00,
2013-05-19 15:52:00,86.0,66.0,29.89,SSE,160,3.0,7.0,51,0.00,,,0.00,,2013-05-19 19:52:00,
2013-05-19 16:02:00,87.0,64.0,29.88,SW,225,3.0,11.0,47,0.00,,,0.00,,2013-05-19 20:02:00,
2013-05-19 16:11:00,87.0,64.0,29.88,SW,225,3.0,11.0,47,0.00,,,0.00,,2013-05-19 20:11:00,
2013-05-19 16:21:00,86.0,63.0,29.87,SE,125,5.0,10.0,47,0.00,,,0.00,,2013-05-19 20:21:00,
2013-05-19 16:32:00,87.0,65.0,29.87,West,269,4.0,12.0,49,0.00,,,0.00,,2013-05-19 20:32:00,
2013-05-19 16:41:00,87.0,65.0,29.87,West,269,4.0,12.0,49,0.00,,,0.00,,2013-05-19 20:41:00,
2013-05-19 16:52:00,87.0,67.0,29.88,South,175,4.0,12.0,51,0.00,,,0.00,,2013-05-19 20:52:00,
2013-05-19 17:02:00,87.0,67.0,29.88,SW,224,6.0,13.0,52,0.00,,,0.00,,2013-05-19 21:02:00,
2013-05-19 17:11:00,87.0,67.0,29.88,SW,224,6.0,13.0,52,0.00,,,0.00,,2013-05-19 21:11:00,
2013-05-19 17:22:00,87.0,67.0,29.87,WSW,248,5.0,11.0,51,0.00,,,0.00,,2013-05-19 21:22:00,
2013-05-19 17:32:00,86.0,65.0,29.86,SW,219,8.0,13.0,50,0.00,,,0.00,,2013-05-19 21:32:00,
2013-05-19 17:43:00,86.0,65.0,29.86,SW,219,8.0,13.0,50,0.00,,,0.00,,2013-05-19 21:43:00,
2013-05-19 17:53:00,87.0,67.0,29.86,SW,225,6.0,11.0,51,0.00,,,0.00,,2013-05-19 21:53:00,
2013-05-19 18:02:00,87.0,67.0,29.86,SW,222,7.0,11.0,51,0.00,,,0.00,,2013-05-19 22:02:00,
2013-05-19 18:12:00,87.0,67.0,29.86,SW,222,7.0,11.0,51,0.00,,,0.00,,2013-05-19 22:12:00,
2013-05-19 18:23:00,87.0,67.0,29.84,SSE,164,4.0,12.0,51,0.00,,,0.00,,2013-05-19 22:23:00,
2013-05-19 18:33:00,87.0,65.0,29.83,SSW,195,5.0,11.0,49,0.00,,,0.00,,2013-05-19 22:33:00,
2013-05-19 18:42:00,87.0,65.0,29.83,SSW,195,5.0,11.0,49,0.00,,,0.00,,2013-05-19 22:42:00,
2013-05-19 18:53:00,86.0,65.0,29.83,SSE,160,4.0,11.0,50,0.00,,,0.00,,2013-05-19 22:53:00,
2013-05-19 19:02:00,86.0,65.0,29.83,SSE,153,4.0,10.0,49,0.00,,,0.00,,2013-05-19 23:02:00,
2013-05-19 19:11:00,86.0,65.0,29.83,SSE,153,4.0,10.0,49,0.00,,,0.00,,2013-05-19 23:11:00,
2013-05-19 19:21:00,86.0,65.0,29.83,SW,228,5.0,8.0,50,0.00,,,0.00,,2013-05-19 23:21:00,
2013-05-19 19:32:00,86.0,65.0,29.83,SSW,195,5.0,9.0,50,0.00,,,0.00,,2013-05-19 23:32:00,
2013-05-19 19:42:00,85.0,65.0,29.83,SSE,152,5.0,9.0,51,0.00,,,0.00,,2013-05-19 23:42:00,
2013-05-19 19:52:00,85.0,65.0,29.83,SSE,152,5.0,9.0,51,0.00,,,0.00,,2013-05-19 23:52:00,
2013-05-19 20:02:00,85.0,65.0,29.82,SSW,200,5.0,12.0,52,0.00,,,0.00,,2013-05-20 00:02:00,
2013-05-19 20:11:00,85.0,65.0,29.82,SSW,200,5.0,12.0,52,0.00,,,0.00,,2013-05-20 00:11:00,
2013-05-19 20:21:00,84.0,66.0,29.84,SW,224,3.0,9.0,55,0.00,,,0.00,,2013-05-20 00:21:00,
2013-05-19 20:32:00,83.0,66.0,29.84,SSW,193,3.0,7.0,56,0.00,,,0.00,,2013-05-20 00:32:00,
2013-05-19 20:42:00,83.0,66.0,29.84,SSW,193,3.0,7.0,56,0.00,,,0.00,,2013-05-20 00:42:00,
2013-05-19 20:52:00,82.0,66.0,29.84,SSE,157,3.0,8.0,58,0.00,,,0.00,,2013-05-20 00:52:00,
2013-05-19 21:01:00,82.0,66.0,29.84,SSE,153,3.0,6.0,59,0.00,,,0.00,,2013-05-20 01:01:00,
2013-05-19 21:11:00,82.0,66.0,29.84,SSE,153,3.0,6.0,59,0.00,,,0.00,,2013-05-20 01:11:00,
2013-05-19 21:21:00,81.0,67.0,29.85,SSE,160,2.0,5.0,62,0.00,,,0.00,,2013-05-20 01:21:00,
2013-05-19 21:31:00,80.0,66.0,29.85,SSW,197,2.0,5.0,63,0.00,,,0.00,,2013-05-20 01:31:00,
2013-05-19 21:42:00,80.0,66.0,29.85,SSW,197,2.0,5.0,63,0.00,,,0.00,,2013-05-20 01:42:00,
2013-05-19 21:52:00,80.0,67.0,29.85,SSE,152,2.0,8.0,64,0.00,,,0.00,,2013-05-20 01:52:00,
2013-05-19 22:02:00,79.0,66.0,29.86,SSE,147,2.0,7.0,65,0.00,,,0.00,,2013-05-20 02:02:00,
2013-05-19 22:11:00,79.0,66.0,29.86,SSE,147,2.0,7.0,65,0.00,,,0.00,,2013-05-20 02:11:00,
2013-05-19 22:21:00,79.0,67.0,29.86,SSE,159,2.0,5.0,67,0.00,,,0.00,,2013-05-20 02:21:00,
2013-05-19 22:31:00,78.0,67.0,29.86,SSW,194,2.0,4.0,68,0.00,,,0.00,,2013-05-20 02:31:00,
2013-05-19 22:42:00,78.0,67.0,29.86,SSW,194,2.0,4.0,68,0.00,,,0.00,,2013-05-20 02:42:00,
2013-05-19 22:52:00,78.0,67.0,29.87,South,191,1.0,4.0,69,0.00,,,0.00,,2013-05-20 02:52:00,
2013-05-19 23:01:00,77.0,66.0,29.86,SSE,152,1.0,3.0,70,0.00,,,0.00,,2013-05-20 03:01:00,
2013-05-19 23:11:00,77.0,67.0,29.86,SSE,160,1.0,5.0,71,0.00,,,0.00,,2013-05-20 03:11:00,
2013-05-19 23:21:00,77.0,67.0,29.86,SSE,160,1.0,5.0,71,0.00,,,0.00,,2013-05-20 03:21:00,
2013-05-19 23:33:00,77.0,67.0,29.86,SSE,160,3.0,7.0,71,0.00,,,0.00,,2013-05-20 03:33:00,
2013-05-19 23:42:00,76.0,67.0,29.86,SSW,194,3.0,6.0,73,0.00,,,0.00,,2013-05-20 03:42:00,
2013-05-19 23:52:00,76.0,67.0,29.86,SSW,194,3.0,6.0,73,0.00,,,0.00,,2013-05-20 03:52:00,